FLOCK 4BE-33

Last updated on Mon Sep 16 2024 00:02:03 GMT+0000 (Coordinated Universal Time)

1 60502U 24149AL 24258.89568725 .00016433 00000+0 79258-3 0 9994 2 60502 97.4384 333.9977 0006235 42.5041 317.6675 15.18757196 4417
UTC large
Height (km)
Speed (km/s)
/
Latitude / Longitude
Inclination (degrees)
Orbital Period (minutes)
Azimuth
Elevation
Range (km)
Doppler Factor

Next 0 passes for location: London (51.5072 / 0.1276)

Sorry there are no passes over London.